This is the latest recevied weather packets stored in our database for station/object KC0RPY. If no packets are shown the sender has not sent any weather packets the latest 10 day(s).
| Time | Temp. | Humidity | Pressure | Rain* | Wind** | Luminosity | Snow |
|---|---|---|---|---|---|---|---|
| 1777836313 | 26.11° C | 42% | 1011.8 hPa | 0 mm | - | 728 W/m² | - |
| 1777836009 | 25.56° C | 42% | 1011.8 hPa | 0 mm | - | 755 W/m² | - |
| 1777835706 | 25.56° C | 42% | 1011.8 hPa | 0 mm | - | 763 W/m² | - |
| 1777835403 | 25.56° C | 42% | 1011.8 hPa | 0 mm | - | 771 W/m² | - |
| 1777835099 | 26.11° C | 42% | 1012.2 hPa | 0 mm | - | 770 W/m² | - |
| 1777834796 | 25.56° C | 42% | 1012.2 hPa | 0 mm | - | 789 W/m² | - |
| 1777834493 | 25° C | 41% | 1012.2 hPa | 0 mm | - | 809 W/m² | - |
| 1777834192 | 25° C | 43% | 1012.2 hPa | 0 mm | - | 787 W/m² | - |
| 1777833889 | 25° C | 43% | 1012.2 hPa | 0 mm | - | 775 W/m² | - |
| 1777833585 | 25° C | 43% | 1012.5 hPa | 0 mm | - | 758 W/m² | - |
| 1777833282 | 25° C | 42% | 1012.2 hPa | 0 mm | - | 732 W/m² | - |
| 1777832979 | 24.44° C | 44% | 1012.2 hPa | 0 mm | - | 726 W/m² | - |
| 1777832678 | 24.44° C | 43% | 1012.5 hPa | 0 mm | - | 730 W/m² | - |
| 1777832375 | 24.44° C | 43% | 1012.5 hPa | 0 mm | - | 764 W/m² | - |
| 1777832072 | 23.89° C | 44% | 1012.5 hPa | 0 mm | - | 785 W/m² | - |
| 1777831768 | 24.44° C | 44% | 1012.5 hPa | 0 mm | - | 768 W/m² | - |
| 1777831466 | 23.89° C | 45% | 1012.5 hPa | 0 mm | - | 756 W/m² | - |
| 1777831163 | 23.33° C | 45% | 1013.2 hPa | 0 mm | - | 747 W/m² | - |
| 1777830861 | 23.33° C | 45% | 1013.2 hPa | 0 mm | - | 766 W/m² | - |
| 1777830556 | 23.33° C | 45% | 1013.2 hPa | 0 mm | - | 749 W/m² | - |
| 1777830255 | 23.33° C | 46% | 1013.2 hPa | 0 mm | - | 757 W/m² | - |
| 1777829949 | 23.33° C | 45% | 1013.5 hPa | 0 mm | - | 798 W/m² | - |
| 1777829645 | 23.33° C | 48% | 1013.5 hPa | 0 mm | - | 790 W/m² | - |
| 1777829342 | 22.78° C | 46% | 1013.5 hPa | 0 mm | - | 804 W/m² | - |
| 1777829040 | 22.78° C | 47% | 1013.9 hPa | 0 mm | - | 791 W/m² | - |
* Rain latest hour (hover to see other rain measurements)
** Current wind speed in m/s (hover to see current wind gust speed)